Location: ??????
(38.1303°N, 24.0039°E)
Time: 13:03:46
(UTC+00:00)

SL-08 R/B - Pass Details

Date: 20 June 2021
Orbit: 674 x 739 km, 98.5° (Epoch: 03 August)

Event Time Altitude Azimuth Distance (km) Brightness Sun altitude
Rises 02:03:03 0° 174° (S) 3,021 6.3 -10.1°
Reaches altitude 10° 02:05:17 10° 177° (S) 2,116 5.4 -9.7°
Maximum altitude 02:09:52 63° 259° (W) 773 3.3 -9.0°
Drops below altitude 10° 02:14:33 10° 340° (NNW) 2,166 6.1 -8.3°
Sets 02:16:52 0° 344° (NNW) 3,099 7.0 -8.0°
